Regional Weather Roundup
Issued by NWS Wakefield, VA

Home | Current Version | Previous Version | Graphics & Text | Print | Product List | Glossary On
Versions: 1 2 3 4 5 6 7 8 9 10 11 12 13 14 15 16 17 18 19 20 21 22 23 24 25 26 27
000
ASUS41 KAKQ 280215
RWRAKQ

REGIONAL WEATHER ROUNDUP
NATIONAL WEATHER SERVICE WAKEFIELD VA
1000 PM EDT THU JUL 27 2017

Note: "fair" indicates few or no clouds below 12,000 feet with no
significant weather and/or obstructions to visibility. * = Denotes
station may not report precipitation (e.g., rain,snow,etc.),
thunder or fog.

VAZ042-051-052>054-056-280300-
NORTHERN VIRGINIA

CITY           SKY/WX    TMP DP  RH WIND       PRES   REMARKS
WASH NATIONAL  CLOUDY    82  76  81 SE6       29.85F
DULLES         CLOUDY    75  73  93 SE3       29.85F
FORT BELVOIR   CLOUDY    80  74  83 S3        29.85F
QUANTICO       CLOUDY    82  77  84 SW8       29.85F
FREDERICKSBRG* CLOUDY    79  75  87 S5        29.85F
STAFFORD*      CLOUDY    76  76  97 S3        29.89F
WARRENTON      CLOUDY    78  69  73 CALM      29.86R
CULPEPER*      MOCLDY    77  73  86 CALM      29.87S
MANASSAS*      CLOUDY    76  74  93 S7        29.86S
LEESBURG*      CLOUDY    77  73  88 CALM      29.87F
WINCHESTER     CLOUDY    72  70  94 CALM      29.88S
FRONT ROYAL*   CLOUDY    73  70  88 CALM      29.88R
LURAY*         CLOUDY    73  72  94 S6        29.90R
$$

VAZ048-049-060>072-079>083-280300-
CENTRAL AND SOUTH CENTRAL VIRGINIA

CITY           SKY/WX    TMP DP  RH WIND       PRES   REMARKS
RICHMOND       CLOUDY    80  71  74 W6        29.89R
CHESTERFIELD*  FAIR      78  69  73 SW3       29.90S
PETERSBURG*    CLOUDY    76  70  81 CALM      29.90S
HANOVER        CLOUDY    78  67  68 S6        29.89F
TAPPAHANNOCK*  CLOUDY    81  64  57 SW6       29.88S
QUINTON*       MOCLDY    77  77 100 CALM      29.88S
CHARLOTTSVILLE PTCLDY    77  74  90 CALM      29.89S
GORDONSVILLE*  CLOUDY    74  74  98 CALM      29.88S
ORANGE*        CLOUDY    73  72  94 CALM      29.88S
LOUISA*        DRIZZLE   72  68  88 CALM      29.88S
BUMPASS*       FAIR      73  72  95 SW3       29.88S
FARMVILLE*     LGT RAIN  72  70  93 S3        29.90S
CREWE*         FAIR      74  70  87 CALM      29.91R
FORT PICKETT*  FAIR     N/A N/A N/A W3        29.92R
CHASE CITY*    FAIR      72  72  99 NW3       29.92S
CLARKSVILLE*   FAIR      72  72 100 W3        29.92R
SOUTH HILL*    PTCLDY    74  72  93 SW5       29.97R
LAWRENCEVILLE* FAIR      74  72  92 CALM      29.92R
EMPORIA*       CLOUDY    79  70  73 CALM      29.92S
$$

VAZ088>098-280300-
SOUTHEAST VIRGINIA

CITY           SKY/WX    TMP DP  RH WIND       PRES   REMARKS
NORFOLK        MOCLDY    83  72  69 S12       29.89S
VIRGINIA BEACH CLOUDY    81  70  69 S8        29.89S
NORFOLK NAVAL  CLOUDY    84  71  65 S9G18     29.91R
WEST POINT*    MOCLDY    81  73  78 CALM      29.89S
SALUDA*        FAIR      81  75  82 S3        29.88R
NEWPORT NEWS   CLOUDY    83  72  69 SW7       29.89R
LANGLEY AFB    CLOUDY    83  73  72 S15       29.88S
FORT EUSTIS    PTCLDY    82  73  73 S5        29.87R
WILLIAMSBURG*  CLOUDY    82  73  74 CALM      29.90R
HR EXEC AP*    MOCLDY    81  72  74 S6        29.88R
FRANKLIN*      MOCLDY    81  73  78 S6        29.90S
US460-WAKEFLD  CLOUDY    81  73  76 CALM      29.90R
$$

VAZ020-022-025-037-045-280300-
WEST CENTRAL AND SOUTHWEST VIRGINIA

CITY           SKY/WX    TMP DP  RH WIND       PRES   REMARKS
STAUNTON*      MOCLDY    72  69  91 CALM      29.95S
WAYNESBORO*    MOCLDY    72  70  93 W5        29.95S
HOT SPRINGS VA CLOUDY    63  63 100 W10       30.08R
LYNCHBURG      CLOUDY    71  71 100 CALM      29.94R
DANVILLE       CLOUDY    72  72 100 W5        29.95R
SOUTH BOSTON*  FAIR      72  71  96 CALM      29.94R
MARTINSVILLE   MOCLDY    71  69  96 CALM      29.98R FOG
ROANOKE        CLOUDY    75  69  81 CALM      29.97S
BLACKSBURG     CLOUDY    71  69  95 CALM      30.04S
DUBLIN*        CLOUDY    72  66  80 W5        30.03S
MARION*        LGT RAIN  70  66  88 CALM      30.07S
HILLSVILLE*    CLOUDY    69  65  86 CALM      30.05R FOG
RICHLANDS*     RAIN      68  64  88 CALM      30.06S
WISE*          LGT RAIN  68  68 100 SE3       30.06F
ABINGDON*      CLOUDY    72  70  93 CALM      30.02F
$$

MDZ021>025-VAZ099-100-280300-
SOUTHERN MARYLAND AND THE DELMARVA PENINSULA

CITY           SKY/WX    TMP DP  RH WIND       PRES   REMARKS
PATUXENT RIVER CLOUDY    79  76  90 S5        29.86F
BAY BRIDGE APT MOCLDY    79  68  69 CALM      29.86S
LEONARDTOWN    CLOUDY    77  72  83 SE3       29.88F
DOVER          CLOUDY    74  74 100 CALM      29.86F
GEORGETOWN     CLOUDY    76  70  82 S7        29.89F
EASTON         NOT AVBL
CAMBRIDGE      PTCLDY    77  73  88 SE6       29.87S
SALISBURY      CLOUDY    74  73  97 E3        29.88F
OCEAN CITY     CLOUDY    76  73  91 S6        29.89F
WALLOPS ISLAND CLOUDY    76  74  93 S10       29.89F
ACCOMACK*      CLOUDY    78  74  85 S6        29.89S
$$

NCZ012>017-030>032-280300-
NORTH CENTRAL AND EASTERN NORTH CAROLINA

CITY           SKY/WX    TMP DP  RH WIND       PRES   REMARKS
ROANOKE RAPIDS LGT RAIN  79  72  78 CALM      29.91R
RALEIGH        TSTM      78  73  84 VRB6      29.96R
ELIZABETH CITY PTCLDY    81  73  76 S9        29.92S
AHOSKIE*         N/A     78  73  83 S6        29.92R
EDENTON*       PTCLDY    82  71  69 S12       29.93S
CURRITUCK*     PTCLDY    81  72  74 S5        29.92S
KILL DEVIL HLS PTCLDY    80  69  69 S3        29.92F
MANTEO         MOCLDY    80  71  73 SW16      29.94S
CAPE HATTERAS  PTCLDY    80  71  74 S12       29.96F
TARBORO*       NOT AVBL
GOLDSBORO      CLOUDY    80  73  79 S6        29.93R
WASHINGTON     MOCLDY    79  69  70 S7        29.95R
GREENVILLE     MOCLDY    81  68  65 SW8       29.96R
NEW BERN       CLOUDY    78  73  84 S8        29.97R
WILMINGTON     PTCLDY    78  74  87 S5        29.97R
$$

VAZ048-280300-
ELSEWHERE

CITY           SKY/WX    TMP DP  RH WIND       PRES   REMARKS
HARRISBURG PA  MOCLDY    77  71  82 E5        29.88R
BALTIMORE      CLOUDY    78  71  79 SW3       29.85F
ANNAPOLIS      CLOUDY    77  72  84 CALM      29.86S
ANDREWS AFB    CLOUDY    77  74  89 SE6       29.86S
PHILADELPHIA   CLOUDY    76  70  82 E3        29.89S
HENDERSON NC   CLOUDY    70  68  93 SW5       29.94S
GREENSBORO     CLOUDY    76  73  91 SW3       29.96R
ROCKY MOUNT    CLOUDY    81  71  71 S6        29.92S
$$

VAZ100-280300-
MARINE

STATION/POSITION TIME  TEMP    WIND        PRES    WAVE   SWELL
                       AIR SEA DIR/SP/G            HT/PER HT/PER
                 (UTC) (F)     (DEG/KT/KT) (MB)    (FT/S) (FT/S)
BRANDYWINE LGT   0142   76     190/ 11/ 12 1012.2F
CAPE MAY NJ      0148   75 76  170/  6/  8 1011.5F
LEWES DE         0148   76 74  180/  5/  9 1011.6F
15NM E FENWICK I 0150   78 76  170/ 12/ 14 1012.8F   3/ 5   2/ 8
OCEAN-CITY-INLET 0148   74 76  200/  5/  8 1012.6F
WACHAPREAGUE VA  0148   78 81  170/  7/ 10 1011.9R
THOMAS POINT MD  0200   80 81  220/  4/  5   N/A
GOOSES REEF MD   0150   82     170/ 12/ 14 1011.9F
COVE POINT MD    0148   81     170/ 12/ 13 1011.8F
SOLOMONS ISLAND  0148   81 84  190/  5/  6   N/A
BISHOPS HEAD MD  0148   80 81  140/ 11/ 12 1011.4F
PINEY POINT MD   0142          210/  3/  3   N/A
CAMBRIDGE MD     0148   78 84              1012.4F
LEWISETTA VA     0148   81 83  190/  3/  5 1011.1F
RAPPAHANNOCK LGT 0142          190/ 13/ 14 1012.4R
STINGRAY PT      0150   84     250/  8/ 10 1011.9S
YORK RVR RNG VA  0148   83     220/ 13/ 14 1012.1R
YORKTOWN VA      0148   83 82  220/  5/  8 1011.6R
JAMESTOWN VA     0150          210/  6/  6   N/A
DOMINION TERM VA 0148   82     190/ 12/ 14 1012.0R
KIPTOPEKE VA     0142      79  180/  9/ 10   N/A
CHES BAY BRIDGE  0148   82 78  200/ 13/ 17 1011.9S
CAPE HENRY VA    0148   82     180/ 10/ 15   N/A
WILLOUBY STN VA  0148   83     190/ 15/ 18 1011.8F
S CRANEY ISL VA  0148   83     200/  8/ 14 1011.9S
CAPE HENRY BUOY  0130      72                N/A     3/ 8
1ST LANDING BUOY 0150   82                 1011.8F
64NM E OF VA BCH 0150   79 78  200/ 16/ 17 1013.5F   3/ 4   2/ 8
DUCK PIER NC     0148   81 70  190/ 16/ 23 1012.7F
44100 DUCK FRF   0105      73                N/A     3/ 7
44056 DUCK FRF   0130      74                N/A     2/ 7
OREGON INLET NC  0142   81 81  200/ 16/ 20 1013.9R
HATTERAS NC      0148   80 80  180/  7/ 11 1014.4F
DIAMOND SHLS NC  0150   82 83  180/ 14/ 17 1014.4F   2/ 8   2/ 8
CAPE LOOKOUT NC  0200   81     170/ 13/ 14 1014.3S
$$




USA.gov is the U.S. government's official web portal to all federal, state and local government web resources and services.